[[{"header":{"parameterUnit":"m.s-1","parameterCategory":1,"la1":30.2991,"la2":30.254,"lo1":-89.0895,"lo2":-89.0444,"dy":0.0017,"dx":0.0017,"nx":28,"ny":28,"refTime":"2026-02-05T03:00:00:Z","depth":0,"parameterNumber":2,"parameterNumberName":"U-component_of_WINDS"},"data":[0,0,0,0,0,0,0,0,0,0,0,0,0,0,0,0,0,0,0,0,0,0,0,0,0,0,0,0,0,0,0,0,0,0,0,0,0,0,0,0,0,0,0,0,0,0,0,0,0,0,0,0,0,0,0,0,0,0,3.8692,3.8693,0,3.8758,3.8758,3.8759,3.8741,3.8739,3.8738,3.8737,3.8804,3.8807,3.881,0,0,0,0,0,0,0,0,0,0,0,0,0,3.8553,3.8555,3.8692,3.8693,3.8694,3.8757,3.8758,3.8759,3.8741,3.8739,3.8738,3.8736,3.8803,3.8806,3.881,0,0,0,0,0,0,0,0,0,0,0,0,0,3.8615,3.8556,3.8692,3.8692,3.8693,3.8757,3.8758,3.8759,3.8741,3.8739,3.8737,3.8735,3.8802,3.8806,3.881,3.8878,0,0,3.8824,3.8826,0,0,0,0,0,0,0,0,3.8612,3.862,3.8691,3.8692,3.8693,3.8739,3.8734,3.8799,3.8742,3.8723,3.8737,3.8734,3.8784,3.879,3.8806,3.8881,3.8884,3.8825,3.8827,3.8829,3.8831,0,0,0,0,0,0,0,3.8607,3.8617,3.8718,3.8692,3.8694,3.869,3.8696,3.8746,3.8764,3.8724,3.8723,3.8731,3.8784,3.8802,3.8808,3.8885,3.8825,3.8829,3.8831,3.8833,3.9022,3.9025,0,0,0,0,0,0,3.8602,3.8614,3.8716,3.872,3.8647,3.8694,3.8701,3.8726,3.8763,3.8767,3.8733,3.873,3.8795,3.8802,3.881,3.8894,3.8829,3.8834,3.8836,3.902,3.9023,3.9025,0,0,0,0,0,0,3.8599,3.8612,3.8713,3.8667,3.8679,3.8698,3.8727,3.8729,3.8747,3.877,3.8773,3.8748,3.8794,3.8804,3.8862,3.8896,3.8836,3.884,3.9017,3.9021,3.9024,3.906,0,0,0,0,0,0,3.8595,3.8611,3.8636,3.8667,3.8682,3.8764,3.8729,3.8731,3.8755,3.8752,3.8785,3.8788,3.8793,3.8855,3.8867,3.8901,3.8843,3.9014,3.9019,3.9023,3.9056,3.9065,3.9072,0,0,0,0,0,3.8591,3.8643,3.8637,3.865,3.8714,3.8766,3.8774,3.8779,3.8757,3.8784,3.8799,3.8787,3.889,3.8862,3.8874,3.891,3.9012,3.9018,3.9023,3.9053,3.9063,3.9072,0,0,0,0,0,0,3.8614,3.8647,3.8641,3.8705,3.8733,3.8762,3.8795,3.8789,3.8823,3.8819,3.8823,3.8831,3.8891,3.8906,3.8874,3.8979,3.8948,3.8956,3.8967,3.8977,3.8984,3.898,3.8847,0,0,0,0,0,3.8627,3.8666,3.8693,3.8747,3.8761,3.8776,3.8799,3.88,3.8829,3.884,3.886,3.8888,3.8927,3.8953,3.899,3.9059,3.9066,3.909,3.9098,3.9104,3.9111,3.915,3.9162,3.9042,3.9042,3.9042,0,0,3.8654,3.8677,3.8701,3.8752,3.8774,3.8815,3.8786,3.883,3.8861,3.8847,3.8904,3.8919,3.8952,3.9016,3.9046,3.9031,3.9146,3.911,3.9115,3.9119,3.9157,3.9168,3.9178,3.9046,3.9045,3.9045,0,0,3.8724,3.8744,3.8793,3.8815,3.8849,3.8859,3.8871,3.8902,3.8912,3.8969,3.896,3.8997,3.9064,3.9088,3.9109,3.9191,3.9182,3.9203,3.9244,3.9282,3.9292,3.93,3.9331,3.9341,3.921,3.921,3.921,0,3.8753,3.8814,3.8818,3.8864,3.8888,3.8878,3.8928,3.895,3.8994,3.901,3.8993,3.9079,3.9099,3.917,3.9191,3.9208,3.9222,3.9199,3.929,3.9298,3.9306,3.9336,3.9347,3.9212,3.9212,3.9212,3.9211,0,3.8849,3.8891,3.8927,3.897,3.8998,3.9045,3.9058,3.9085,3.9085,3.9097,3.9157,3.9182,3.9225,3.9242,3.9242,3.9314,3.9304,3.9288,3.9257,3.932,3.9348,3.9359,3.9215,3.9215,3.9214,3.9213,0,0,3.8934,3.8981,3.8994,3.9015,3.9052,3.9086,3.9133,3.9176,3.92,3.9231,3.9273,3.9331,3.9317,3.9341,3.9344,3.9377,3.9443,3.9358,3.9359,3.9374,3.9526,3.9538,3.9551,3.9438,3.944,3.9441,3.9524,0,3.9008,3.9092,3.9099,3.9175,3.9216,3.9208,3.925,3.9278,3.9292,3.9329,3.9343,3.9385,3.9363,3.9378,3.9411,3.9428,3.9474,3.9422,3.9477,3.9479,3.947,3.9565,3.9578,3.9655,3.9535,3.9537,3.9538,0,3.9105,3.9141,3.9221,3.9255,3.9272,3.931,3.9351,3.9386,3.9418,3.9425,3.9454,3.9452,3.9503,3.947,3.9541,3.9505,3.9528,3.954,3.9544,3.9549,3.9512,3.9575,3.9679,3.9691,3.9555,3.9553,3.9552,0,3.9161,3.9229,3.9286,3.9304,3.9344,3.9371,3.939,3.942,3.9446,3.9482,3.9499,3.954,3.9563,3.9595,3.9606,3.9581,3.9677,3.9644,3.9685,3.9685,3.9706,3.9704,3.9816,3.9719,3.9719,3.9719,3.9719,0,3.9244,3.9294,3.9312,3.9348,3.9404,3.9412,3.9468,3.9484,3.9512,3.9551,3.9547,3.9584,3.9595,3.9635,3.9643,3.9701,3.9711,3.972,3.9721,3.9721,3.972,3.9736,3.9731,3.9722,3.9721,3.9721,3.972,0,3.9316,3.933,3.9393,3.9427,3.9436,3.9477,3.9506,3.9541,3.9554,3.9604,3.9616,3.9637,3.9684,3.9697,3.9753,3.9759,3.9827,3.9824,3.9817,3.9817,3.9857,3.9854,3.9984,4.0002,3.9893,3.9894,3.9895,0,3.9368,3.9406,3.9445,3.9471,3.9491,3.9533,3.956,3.9569,3.9598,3.9639,3.9669,3.9715,3.9753,3.9827,3.9848,3.9891,3.9889,3.9932,3.9896,3.9894,3.9892,3.989,3.9894,3.9939,3.994,3.9941,3.9942,0,3.9459,3.9465,3.9504,3.9546,3.9579,3.9612,3.9645,3.9666,3.9681,3.9713,3.9761,3.979,3.9848,3.9894,3.9939,3.9958,3.9953,3.9953,3.9965,3.9965,3.996,3.9965,3.9836,3.995,3.9949,3.9949,3.9948,3.9948,3.9523,3.9558,3.9591,3.9636,3.9661,3.9692,3.9727,3.9746,3.9786,3.9834,3.9837,3.9889,3.9923,3.9982,4.0004,4.0046,4.0033,4.005,4.0054,4.0059,4.0063,3.9953,4.0053,4.0053,4.0053,4.0053,4.0053,0,3.9616,3.9637,3.9678,3.9724,3.9759,3.9752,3.9788,3.9818,3.9864,3.9896,3.9933,3.9989,4.0035,4.006,4.0106,4.0135,4.0134,4.0146,4.0145,4.015,4.0071,4.0056,4.0146,4.0146,4.0146,4.0146,4.0146,4.0146,3.9668,3.9727,3.9737,3.9809,3.983,3.9882,3.9903,3.9933,3.9958,4.0021,4.0059,4.0075,4.0105,4.0153,4.0195,4.0202,4.0219,4.0234,4.0239,4.0164,4.0155,4.0146,4.0132,4.0237,4.0237,4.0314,4.0315,4.0316]},{"header":{"parameterUnit":"m.s-1","parameterCategory":1,"la1":30.2991,"la2":30.254,"lo1":-89.0895,"lo2":-89.0444,"dy":0.0017,"dx":0.0017,"nx":28,"ny":28,"refTime":"2026-02-05T03:00:00:Z","depth":0,"parameterNumber":3,"parameterNumberName":"V-component_of_WINDS"},"data":[0,0,0,0,0,0,0,0,0,0,0,0,0,0,0,0,0,0,0,0,0,0,0,0,0,0,0,0,0,0,0,0,0,0,0,0,0,0,0,0,0,0,0,0,0,0,0,0,0,0,0,0,0,0,0,0,0,0,-5.4556,-5.4557,0,-5.4663,-5.4664,-5.4665,-5.467,-5.4668,-5.4667,-5.4666,-5.4771,-5.4775,-5.4779,0,0,0,0,0,0,0,0,0,0,0,0,0,-5.4354,-5.4358,-5.4556,-5.4557,-5.4559,-5.4663,-5.4664,-5.4666,-5.467,-5.4668,-5.4667,-5.4665,-5.477,-5.4774,-5.4779,0,0,0,0,0,0,0,0,0,0,0,0,0,-5.4449,-5.4359,-5.4556,-5.4573,-5.4576,-5.4662,-5.4664,-5.4666,-5.467,-5.4668,-5.4666,-5.4665,-5.4768,-5.4774,-5.478,-5.4854,0,0,-5.4798,-5.4801,0,0,0,0,0,0,0,0,-5.4444,-5.4457,-5.4569,-5.4572,-5.4576,-5.4651,-5.4632,-5.4729,-5.4671,-5.4634,-5.4666,-5.4664,-5.4732,-5.4741,-5.4765,-5.4859,-5.4864,-5.4799,-5.4802,-5.4805,-5.4806,0,0,0,0,0,0,0,-5.4437,-5.4452,-5.4598,-5.4571,-5.4575,-5.4576,-5.4587,-5.465,-5.4692,-5.4637,-5.4638,-5.4651,-5.4734,-5.4759,-5.4768,-5.4865,-5.4798,-5.4804,-5.4807,-5.481,-5.5029,-5.5031,0,0,0,0,0,0,-5.4428,-5.4446,-5.4595,-5.4601,-5.4504,-5.4581,-5.4594,-5.4629,-5.4692,-5.47,-5.4652,-5.4651,-5.475,-5.4761,-5.4771,-5.4865,-5.4805,-5.481,-5.4814,-5.5027,-5.503,-5.5032,0,0,0,0,0,0,-5.4423,-5.4441,-5.459,-5.4524,-5.4543,-5.4586,-5.4626,-5.4632,-5.4658,-5.4703,-5.471,-5.4671,-5.4749,-5.4763,-5.4835,-5.4869,-5.4813,-5.4818,-5.5024,-5.5028,-5.5031,-5.5051,0,0,0,0,0,0,-5.4417,-5.4439,-5.4468,-5.4525,-5.4547,-5.4653,-5.4628,-5.4635,-5.4668,-5.4667,-5.4723,-5.473,-5.4749,-5.4826,-5.4841,-5.4876,-5.4823,-5.5022,-5.5026,-5.503,-5.5048,-5.5055,-5.5061,0,0,0,0,0,-5.441,-5.4468,-5.4469,-5.4487,-5.4584,-5.4654,-5.4667,-5.4689,-5.4671,-5.4701,-5.4731,-5.4728,-5.4863,-5.4833,-5.485,-5.4887,-5.502,-5.5025,-5.503,-5.5045,-5.5054,-5.5061,0,0,0,0,0,0,-5.4411,-5.4475,-5.4478,-5.4556,-5.46,-5.4655,-5.4693,-5.4697,-5.4745,-5.4742,-5.4765,-5.4778,-5.485,-5.4876,-5.4842,-5.4964,-5.4939,-5.4948,-5.4945,-5.4954,-5.496,-5.4952,-5.4828,0,0,0,0,0,-5.4421,-5.4474,-5.4527,-5.459,-5.4613,-5.4649,-5.468,-5.4694,-5.474,-5.4758,-5.4793,-5.4836,-5.4889,-5.4923,-5.4973,-5.5052,-5.5065,-5.5086,-5.5093,-5.5098,-5.5105,-5.5151,-5.5162,-5.5049,-5.5049,-5.5049,0,0,-5.4441,-5.4482,-5.4514,-5.4592,-5.4627,-5.4682,-5.4664,-5.4721,-5.4762,-5.4766,-5.4837,-5.4864,-5.4915,-5.4991,-5.5027,-5.5015,-5.514,-5.5105,-5.5108,-5.5113,-5.5158,-5.5168,-5.5178,-5.5052,-5.5052,-5.5051,0,0,-5.4505,-5.4541,-5.46,-5.4637,-5.4692,-5.4717,-5.4731,-5.4787,-5.4806,-5.4878,-5.4883,-5.4931,-5.502,-5.5057,-5.5087,-5.5169,-5.517,-5.5185,-5.5219,-5.5264,-5.5273,-5.5281,-5.5312,-5.5323,-5.5192,-5.5192,-5.5192,0,-5.4522,-5.4604,-5.4629,-5.4687,-5.4722,-5.4731,-5.4791,-5.4825,-5.4893,-5.4917,-5.4904,-5.5018,-5.5053,-5.5139,-5.516,-5.5183,-5.5201,-5.5178,-5.527,-5.5278,-5.5286,-5.5316,-5.5327,-5.5193,-5.5193,-5.5193,-5.5193,0,-5.4624,-5.4681,-5.4722,-5.4791,-5.483,-5.4888,-5.4922,-5.4959,-5.4969,-5.4995,-5.507,-5.5112,-5.5173,-5.5194,-5.5204,-5.5283,-5.5274,-5.5265,-5.524,-5.5298,-5.5327,-5.5338,-5.5196,-5.5195,-5.5195,-5.5194,0,0,-5.4689,-5.4774,-5.4788,-5.4821,-5.4884,-5.4929,-5.4989,-5.505,-5.5082,-5.513,-5.5181,-5.5258,-5.5251,-5.5286,-5.53,-5.5339,-5.5404,-5.5326,-5.5327,-5.534,-5.5496,-5.5503,-5.5516,-5.5405,-5.5408,-5.5409,-5.5493,0,-5.4761,-5.4869,-5.4895,-5.4987,-5.5042,-5.5053,-5.5105,-5.515,-5.5176,-5.5226,-5.5255,-5.531,-5.5296,-5.5317,-5.5357,-5.5388,-5.5436,-5.5382,-5.5453,-5.5456,-5.5441,-5.5531,-5.5538,-5.5614,-5.5504,-5.5506,-5.5507,0,-5.4859,-5.4912,-5.5011,-5.5071,-5.5094,-5.5141,-5.5201,-5.5248,-5.53,-5.5316,-5.5357,-5.5368,-5.5431,-5.5404,-5.5492,-5.5455,-5.5485,-5.5506,-5.5509,-5.5517,-5.5485,-5.5541,-5.5639,-5.565,-5.5524,-5.5523,-5.5522,0,-5.4899,-5.4995,-5.5067,-5.5094,-5.5165,-5.5198,-5.5229,-5.5279,-5.5315,-5.5367,-5.5392,-5.5449,-5.5481,-5.5526,-5.5553,-5.553,-5.5639,-5.5613,-5.5655,-5.5655,-5.5677,-5.5676,-5.5782,-5.5696,-5.5696,-5.5696,-5.5696,0,-5.4977,-5.5037,-5.5086,-5.5131,-5.5199,-5.5228,-5.5295,-5.5326,-5.5371,-5.5421,-5.5434,-5.5481,-5.5513,-5.5565,-5.5586,-5.5657,-5.5671,-5.5686,-5.5691,-5.5686,-5.5684,-5.5706,-5.5702,-5.5699,-5.5698,-5.5698,-5.5697,0,-5.5032,-5.5068,-5.5148,-5.521,-5.5227,-5.5275,-5.5327,-5.5371,-5.5399,-5.5464,-5.548,-5.5524,-5.5586,-5.5618,-5.5694,-5.5709,-5.5789,-5.579,-5.5772,-5.5774,-5.5815,-5.5811,-5.5939,-5.5958,-5.5859,-5.586,-5.5861,0,-5.508,-5.5127,-5.5195,-5.5231,-5.5264,-5.5321,-5.5359,-5.539,-5.5429,-5.5494,-5.553,-5.5594,-5.5646,-5.5744,-5.5783,-5.5842,-5.5845,-5.5886,-5.5854,-5.5848,-5.5847,-5.5845,-5.585,-5.5892,-5.5893,-5.5893,-5.5894,0,-5.5161,-5.5177,-5.5233,-5.5296,-5.5342,-5.5392,-5.5442,-5.547,-5.5509,-5.5553,-5.5618,-5.5659,-5.5739,-5.5802,-5.5865,-5.5896,-5.5902,-5.5904,-5.5917,-5.5912,-5.5901,-5.5909,-5.5789,-5.5901,-5.59,-5.59,-5.5899,-5.5899,-5.5215,-5.5259,-5.5315,-5.5377,-5.5418,-5.5465,-5.5511,-5.5546,-5.5601,-5.5671,-5.5685,-5.5754,-5.5807,-5.5893,-5.5926,-5.5981,-5.5972,-5.599,-5.5995,-5.5999,-5.6002,-5.5892,-5.5992,-5.5992,-5.5992,-5.5992,-5.5991,0,-5.5298,-5.5336,-5.5393,-5.5464,-5.5513,-5.5517,-5.5573,-5.5614,-5.5675,-5.5725,-5.5777,-5.5853,-5.5915,-5.596,-5.6023,-5.6059,-5.6063,-5.6074,-5.6072,-5.608,-5.6006,-5.5989,-5.607,-5.607,-5.607,-5.607,-5.607,-5.607,-5.5347,-5.5422,-5.5446,-5.5542,-5.5579,-5.5649,-5.5681,-5.5724,-5.5765,-5.585,-5.5902,-5.5932,-5.598,-5.6048,-5.6105,-5.6117,-5.614,-5.6151,-5.6163,-5.6093,-5.6084,-5.6076,-5.6061,-5.6156,-5.6156,-5.6232,-5.6233,-5.6233]}]]